Vorticity
nan nan nan nan nan nan nan nan nan nan nan nan nan nan nan nan nan nan nan nan nan nan nan nan nan nan nan nan nan nan nan nan nan nan nan nan nan nan nan nan nan nan nan nan nan nan nan nan nan
nan 10 11 9 4 3 8 6 6 6 5 6 7 4 -1 7 8 8 13 8 6 6 6 8 7 6 5 5 6 5 5 5 5 6 6 6 6 5 5 6 7 6 6 8 8 5 3 0 nan
nan 10 5 10 2 0 4 3 4 2 -0 -1 6 4 9 -3 4 15 15 10 4 5 8 8 7 6 5 5 6 5 5 5 6 6 5 6 5 5 5 6 6 6 8 7 4 2 2 4 nan
nan 6 7 7 4 5 1 2 12 2 7 14 7 -1 6 9 12 20 8 4 4 5 8 8 7 6 6 6 5 5 5 6 7 6 5 6 5 5 5 6 5 6 7 4 2 2 6 10 nan
nan 8 9 5 7 5 6 9 8 4 8 13 9 11 9 11 16 15 4 5 5 5 7 9 9 7 5 6 5 5 6 7 7 6 6 6 5 4 5 7 6 7 6 3 3 4 6 10 nan
nan 9 4 6 7 7 10 10 13 7 10 8 5 3 8 20 17 2 5 5 6 5 7 7 7 7 6 6 5 5 6 8 7 7 6 6 6 5 6 5 6 7 5 3 3 3 5 10 nan
nan 7 4 4 5 6 12 22 13 3 5 6 4 5 10 11 11 7 8 6 6 3 6 7 7 5 6 4 6 6 7 7 7 6 6 5 6 6 5 5 5 6 5 4 2 3 5 7 nan
nan 3 6 7 7 5 8 16 8 9 6 7 9 13 13 15 13 11 5 7 5 5 5 6 6 5 5 6 6 7 8 6 6 4 5 3 1 2 3 4 5 6 4 2 2 3 5 2 nan
nan 8 8 6 3 8 9 9 6 7 5 10 19 19 15 17 9 5 4 4 4 6 6 6 6 5 7 7 6 6 5 2 0 1 -0 -2 1 3 4 6 5 4 3 2 3 3 4 2 nan
nan 7 6 2 2 4 9 10 9 8 5 8 13 10 8 5 5 5 4 4 5 6 5 6 6 7 6 6 4 3 1 -0 1 2 0 2 6 6 5 4 3 2 5 3 1 1 1 1 nan
nan 3 4 4 8 5 5 3 12 10 9 11 7 0 3 3 3 6 7 7 6 5 5 6 6 7 6 4 4 5 4 6 7 6 6 6 4 5 4 3 3 5 4 4 5 4 2 7 nan
nan 9 8 7 3 8 5 5 9 9 11 24 19 2 2 5 5 6 7 8 8 6 6 5 6 5 5 5 7 7 6 7 6 8 8 5 5 6 6 7 6 6 6 6 5 5 9 13 nan
nan 6 6 11 8 8 9 7 7 7 11 15 12 7 5 4 5 9 8 6 7 8 7 6 5 6 7 5 6 7 6 7 9 9 5 6 7 6 6 6 6 6 7 7 7 8 10 9 nan
nan 8 10 9 10 10 11 5 6 6 8 5 6 4 5 6 5 5 7 8 8 7 7 6 5 8 7 5 6 5 7 8 8 7 7 7 6 6 7 7 7 7 7 9 9 8 8 8 nan
nan 11 12 12 11 4 9 11 7 5 5 5 5 7 7 6 5 6 5 6 9 8 8 6 6 9 6 4 5 9 8 7 7 9 9 7 6 7 7 7 7 7 9 8 6 7 7 7 nan
nan 9 7 8 9 9 6 7 9 8 5 6 6 8 8 9 4 3 6 8 8 9 9 6 8 7 5 7 8 11 10 8 9 9 9 8 7 7 6 7 8 8 9 7 7 6 7 7 nan
nan 7 4 8 10 9 2 6 9 11 10 7 7 7 10 10 8 8 6 6 9 10 8 6 6 6 8 8 8 9 8 10 10 9 10 10 6 6 6 6 8 9 9 7 6 8 7 6 nan
nan 9 12 9 9 10 7 10 7 9 9 10 9 9 7 12 13 7 8 7 7 9 7 6 6 5 6 6 5 6 6 10 11 9 11 8 7 6 5 8 8 8 8 6 7 8 9 8 nan
nan 10 10 8 6 12 17 18 14 6 2 14 18 8 7 8 13 13 7 8 6 7 8 7 6 5 5 6 6 6 7 8 9 9 10 8 8 6 4 7 9 9 8 7 7 8 8 6 nan
nan 8 11 4 3 12 17 16 24 18 14 10 9 9 10 9 14 15 8 6 9 9 8 7 6 5 4 7 6 8 8 8 11 9 9 7 7 7 6 6 7 8 7 8 7 6 6 11 nan
nan 6 6 4 10 12 21 16 11 17 14 12 7 8 15 12 7 14 11 7 7 6 12 10 8 6 5 7 6 6 5 7 10 11 9 9 11 9 6 6 6 7 7 7 8 7 7 8 nan
nan 7 7 10 15 10 9 13 10 10 5 9 11 10 8 8 9 14 12 7 5 9 9 8 10 8 8 7 8 7 4 4 4 10 11 10 8 8 8 8 7 5 7 9 8 6 7 9 nan
nan 8 10 11 9 8 6 12 5 14 15 10 15 14 13 13 13 10 15 10 4 6 8 9 8 6 10 9 6 7 7 6 5 10 12 9 9 8 10 9 7 3 6 10 8 7 7 6 nan
nan 10 12 14 16 7 6 7 12 8 4 6 30 32 13 9 10 13 17 20 19 9 7 10 9 8 7 9 9 7 5 4 5 9 10 9 9 9 9 10 9 8 7 8 7 8 6 5 nan
nan 10 12 12 15 12 11 2 1 3 9 8 10 13 15 14 10 9 9 12 17 22 22 16 9 10 8 9 7 7 7 8 4 5 10 8 7 11 9 9 9 9 8 8 7 8 8 5 nan
nan 12 8 5 7 13 14 9 -4 -2 4 9 7 8 5 9 8 9 7 7 5 8 12 15 24 22 9 7 7 9 5 4 8 4 8 11 9 11 10 8 9 10 8 8 9 7 9 8 nan
nan 13 11 10 10 10 9 9 -5 -0 9 9 5 7 5 7 8 6 8 8 7 7 8 7 11 22 24 9 8 9 8 6 7 6 4 7 10 11 12 10 8 10 9 7 7 9 10 8 nan
nan 9 9 12 11 9 10 4 -0 1 7 6 8 6 6 6 8 8 7 8 8 8 7 6 8 8 19 25 10 10 9 7 7 11 9 4 5 12 13 10 9 8 8 9 7 7 9 7 nan
nan 20 14 8 10 11 9 0 3 8 8 6 7 7 9 6 8 8 8 8 9 7 6 7 6 7 9 14 21 18 9 9 8 8 9 10 5 8 11 12 9 9 9 7 6 7 8 8 nan
nan nan nan nan nan nan nan nan nan nan nan nan nan nan nan nan nan nan nan nan nan nan nan nan nan nan nan nan nan nan nan nan nan nan nan nan nan nan nan nan nan nan nan nan nan nan nan nan nan
CAPE
0 0 0 0 0 0 0 0 0 0 1 81 382 499 170 14 0 22 506 257 422 834 1127 1067 1139 1077 1099 1313 1311 1225 1180 1043 946 1108 971 832 535 588 422 300 162 10 6 9 11 8 4 1 46
0 0 0 0 0 0 0 0 0 0 0 260 585 91 17 0 0 341 594 298 506 1012 1120 1032 1143 1029 1112 1255 1265 1180 1143 1116 1164 1077 886 602 464 435 249 94 18 8 12 7 3 2 1 7 30
0 0 0 0 0 0 0 0 0 0 0 0 792 261 52 0 132 145 678 412 537 983 1191 1269 1072 953 1127 1242 1194 1086 1094 1070 860 804 818 534 362 262 112 27 6 13 5 4 4 0 0 1 35
0 0 0 0 0 0 0 0 0 2 0 0 889 18 4 6 107 1196 683 491 551 984 1186 1010 954 958 1144 1264 1157 1145 965 767 677 612 644 499 264 17 16 10 9 8 3 3 0 0 1 39 41
0 0 0 0 0 0 0 0 0 4 0 103 1842 1506 528 0 727 923 646 512 679 1004 1079 986 889 1031 1196 1241 1146 944 732 688 616 540 451 359 122 14 25 11 14 3 2 1 0 0 5 42 42
0 0 0 0 0 0 0 0 1 0 3 285 2154 1987 1590 849 1012 793 741 525 656 1030 981 1015 1127 1054 1034 1000 870 671 630 593 460 375 277 128 30 12 5 7 8 1 4 0 0 4 50 49 45
0 0 0 0 0 0 0 0 32 0 0 0 30 1853 1535 770 990 817 828 494 581 833 931 949 961 1026 761 630 563 511 456 366 305 117 37 7 7 10 7 4 6 3 1 0 0 0 36 37 51
0 0 0 0 0 0 0 0 0 0 0 0 8 1657 1490 1031 936 1047 724 608 528 663 780 812 758 655 462 429 440 358 264 198 75 22 3 1 9 15 19 14 7 1 0 0 0 0 16 18 27
0 0 0 0 0 0 0 0 0 0 0 533 1406 1710 1517 1617 1433 1086 825 685 493 493 521 585 532 445 298 340 586 370 359 145 33 3 1 0 0 4 0 10 6 0 0 0 0 0 1 1 5
0 0 0 0 0 0 0 0 0 0 0 1864 1835 1836 1893 1737 1585 1238 1025 717 481 484 389 277 287 300 318 398 306 133 216 19 1 0 0 0 0 0 1 2 0 0 0 0 0 0 0 0 0
0 0 0 0 0 0 0 0 0 0 0 157 1938 1718 1934 1763 1562 1344 1136 886 545 583 445 259 150 181 181 263 177 84 10 1 0 0 0 0 0 0 0 0 0 0 0 0 0 0 0 0 0
0 0 0 0 0 0 0 0 0 0 0 718 2030 1796 1778 1926 1576 1385 1369 982 868 744 563 385 227 110 172 212 139 27 0 0 9 4 0 0 0 0 0 0 0 0 0 0 0 0 0 0 0
0 0 0 0 0 0 0 0 0 0 0 2014 2055 1916 1622 1728 1506 1558 1322 1187 1032 1083 710 558 440 190 95 176 89 23 1 0 4 0 0 0 0 0 0 0 0 0 0 0 0 0 0 0 0
0 0 0 0 0 0 0 0 0 0 0 627 1920 1800 1764 1597 1474 1415 1328 1511 1309 1302 812 620 673 221 35 108 16 5 0 9 16 0 1 0 0 0 0 0 0 0 0 0 0 0 0 0 0
0 0 0 0 0 0 0 0 0 0 0 0 1100 1803 1784 1680 1557 1430 1328 1257 1546 1490 1157 904 895 193 15 32 0 0 0 8 23 17 1 0 0 0 0 0 0 0 0 0 0 0 0 0 0
0 0 0 0 0 0 0 0 0 0 0 0 0 659 1684 1692 1631 1500 1506 1432 1467 1584 1582 1019 1071 300 16 7 127 3 72 8 60 17 0 0 0 0 0 0 0 1 0 0 0 0 0 0 0
0 0 0 0 0 0 0 0 0 0 0 0 0 0 0 1714 1704 1607 1555 1555 1433 1573 1503 1033 832 493 373 93 40 2 2 0 61 14 0 0 0 0 0 0 1 1 0 0 0 0 0 0 0
0 0 0 0 0 0 0 0 0 0 0 0 0 0 0 0 1869 1904 1723 1439 1510 1635 1336 1078 809 440 259 68 44 0 2 0 24 1 4 0 0 0 0 0 7 0 0 0 0 0 0 0 0
0 0 0 0 0 0 0 0 0 0 0 0 0 0 0 0 9 1931 1796 1676 1302 1464 1258 1076 806 351 284 117 54 2 1 0 13 0 0 0 0 0 0 0 4 5 0 0 0 0 0 0 0
0 0 0 0 0 0 0 0 0 0 0 0 0 0 0 0 0 1662 1710 1473 1257 1358 1361 1174 925 461 327 132 44 33 16 0 1 0 0 0 0 0 0 0 0 3 1 0 0 0 0 0 0
0 0 0 0 0 0 0 0 0 0 0 0 0 0 0 0 0 433 1531 1496 1287 1165 1241 1313 1132 752 332 227 38 17 3 0 0 11 8 1 5 0 0 0 0 0 1 0 0 0 0 0 0
0 0 0 0 0 0 0 0 0 0 0 0 0 0 0 0 0 464 1513 1584 1404 1122 961 956 1086 955 529 245 106 33 2 1 8 36 38 5 0 8 0 0 0 0 0 2 0 0 0 0 0
0 0 0 0 0 0 0 0 0 0 0 0 0 0 0 0 0 0 1314 1561 1755 1379 1043 890 836 990 537 323 176 50 4 0 0 0 50 16 0 2 1 0 0 0 0 0 0 0 0 0 0
0 0 0 0 0 0 0 0 0 0 1 0 0 0 0 0 0 0 1 376 1395 1439 1337 1035 1007 1061 409 215 134 40 8 0 0 0 85 49 11 0 7 2 0 0 0 0 0 0 0 0 0
0 0 0 0 0 0 0 0 3 11 1 2 0 0 0 0 0 0 0 0 0 175 850 1013 837 849 590 262 135 157 105 85 0 0 25 88 35 49 0 13 3 0 0 0 0 0 0 0 0
0 0 5 1 0 0 0 0 7 13 10 9 0 0 0 0 0 0 0 0 0 0 0 0 78 772 673 431 315 346 241 76 2 0 0 129 94 49 46 36 42 0 0 0 0 0 0 0 0
3 0 0 6 2 1 0 0 0 3 25 9 12 0 0 0 0 0 0 0 0 0 0 0 0 0 680 433 477 470 440 294 83 1 0 0 105 161 31 47 86 11 0 0 0 0 0 0 0
1 1 32 0 0 3 7 2 4 10 24 23 11 5 0 0 0 0 0 0 0 0 0 0 0 0 0 596 678 668 653 575 541 79 0 0 0 34 183 84 122 46 6 0 0 0 0 0 0
0 0 14 12 22 3 12 0 28 17 37 22 2 1 0 0 0 0 0 0 0 0 0 0 0 0 0 0 120 677 521 615 575 401 106 0 0 0 161 194 159 36 20 2 0 0 0 0 0
0 1 13 16 5 2 2 5 9 11 16 1 0 0 0 0 0 0 0 0 0 0 0 0 0 0 0 0 0 4 536 462 544 432 400 235 40 0 0 74 91 72 45 17 8 9 0 0 0